Regional Weather Roundup
Issued by NWS

Home | Current Version | Previous Version | Graphics & Text | Print | Product List | Glossary On
Versions: 1 2 3 4 5 6 7 8 9 10 11 12 13 14 15 16 17 18 19 20 21 22 23 24 25 26 27 28 29 30 31 32 33 34 35 36 37 38 39 40 41 42 43 44 45 46 47 48 49 50
000
ASUS43 KFSD 241502
RWRSD

WEATHER ROUNDUP FOR SOUTH DAKOTA
NATIONAL WEATHER SERVICE SIOUX FALLS SD
1000 AM CDT SUN JUL 24 2016

NOTE: "FAIR" INDICATES FEW OR NO CLOUDS BELOW 12,000 FEET WITH NO
SIGNIFICANT WEATHER AND/OR OBSTRUCTIONS TO VISIBILITY.


SDZ001>005-009-010-012>017-241600-
NORTHWEST AND NORTH CENTRAL SOUTH DAKOTA

CITY           SKY/WX    TMP DP  RH WIND       PRES   REMARKS
BUFFALO          N/A     72  49  44 S5        30.07R
FAITH            N/A     68  51  54 N3        30.10S
MOBRIDGE       CLOUDY    71  57  61 CALM      30.06R
$$

SDZ012>016-024>037-041>051-057-063-072>074-241600-
SOUTHWEST AND SOUTH CENTRAL SOUTH DAKOTA

CITY           SKY/WX    TMP DP  RH WIND       PRES   REMARKS
RAPID CTY ARPT CLOUDY    71  54  54 SW6       30.16R
PIERRE         CLOUDY    70  59  68 NW10      30.04R
CUSTER         CLOUDY    66  44  45 E12       30.28R
ELLSWORTH AFB  CLOUDY    68  54  59 S6        30.15R
PHILIP         CLOUDY    72  57  59 SW3       30.09S
PINE RIDGE     CLOUDY    68  54  60 E8        30.17S
WINNER         FAIR      77  55  46 NE5       30.07R
$$

SDZ004>011-016>023-039-040-241600-
NORTHEAST SOUTH DAKOTA

CITY           SKY/WX    TMP DP  RH WIND       PRES   REMARKS
ABERDEEN       CLOUDY    72  60  66 W9        30.01F
WATERTOWN      CLOUDY    71  60  68 NW13      30.00R
BROOKINGS      CLOUDY    70  62  76 N13       30.00S
SISSETON         N/A     72  62  71 N14       29.96R
$$

SDZ017-020-022-023-036>040-048>070-241600-
SOUTHEAST SOUTH DAKOTA

CITY           SKY/WX    TMP DP  RH WIND       PRES   REMARKS
SIOUX FALLS    PTSUNNY   76  64  66 N10       30.00R
HURON          CLOUDY    70  61  73 VRB3      30.00R
CHAMBERLAIN    SUNNY     77  60  55 NE5       30.05R
MITCHELL       CLOUDY    73  62  68 N7        30.02F
YANKTON        SUNNY     77  63  61 NW7       30.00R
$$

ABBREVIATIONS USED IN REMARKS
   TC - TEMPERATURE IN CELSIUS
  WCI - WIND CHILL INDEX
   HX - HEAT INDEX
  VSB - VISIBILITY




USA.gov is the U.S. government's official web portal to all federal, state and local government web resources and services.